Showing default

SHIYAN 6 (SY-6), 43711

Orbit data source: Space-Track

SHIYAN 6 (SY-6), 43711 is a payload satellite owned by CNSA (CN) in SSO that was launched on Mon, 19 Nov 2018 UTC via a CHANG ZHENG 2D launch vehicle from the Jiuquan Satellite Launch Center, China (JSC). Payload-class satellites include a variety of spacecraft equipped with specific instruments for various scientific and technological missions. These include communications satellites like Starlink; space stations such as the ISS; scientific satellites like the Hubble; Earth observation satellites from companies like Planet Labs, Umbra, and HawkEye 360; GPS; miniature CubeSats for education and research; and military/defense satellites.

Loading next visibility...
Identifier
43711, 2018-094B
Orbit
SSO
Country
Flag of CNCN / PRC
Related business
Manufacturer
DFH Shenzhen
Mission
Operational Defense Technology
Bus & Motor
SW6, AOCS
Mass
~1,000 kg wet, ~900 kg dry
Launch date (UTC)
2018-11-19 (7 years ago)
Launch vehicle
CHANG ZHENG 2D
Launch site
Jiuquan Satellite Launch Center, China (JSC)
Object type
Payload
Rocket body
Debris
Shape & HBR
Box + 2 Pan, 2.0 m
Radar Cross Section
3.315 m², Large (>1 m²)

Expand to show TLE details & history
Last TLE update: 15 hours ago

TLE from 15 hours ago
0 SHIYAN 6 (SY-6)
1 43711U 18094B   25258.57920148  .00006742  00000-0  26432-3 0  9995
2 43711  97.3754 270.8395 0015298  47.9970 312.2568 15.25981633379557
Epoch: 2025-09-15T13:54Z
TLE epoch observation values (Epoch: 2025-09-15T13:54:03.007Z)
Latitude
-0.00008°
Longitude
67.54515°
Altitude
483.883 km
Speed
7.627 km/s
True Right ascension
18h 03m 21s
True Declination
0° 00' 00"
Sunlit
Object was in daylight at epoch
Visualization orbit readout
Latitude
Unknown
Longitude
Unknown
Altitude
Unknown
Speed
Unknown
Apparent Right ascension
Unknown
Apparent Declination
Unknown
Sunlit
N/A
Visualization observer readout
Local Sidereal Time
21:28:04
Azimuth
Unknown
Elevation
Unknown
Doppler factor
Unknown
Orbital elements
Apogee altitude
495.295 km
Perigee altitude
474.297 km
Semi-major axis
6,862.933 km
Eccentricity
0.00153
Inclination
97.3754°
RAAN
270.8395°
Arg. of periapsis
47.997°
True anomaly
312.12689°
Mean anomaly
312.2568°
Eccentric anomaly
312.19186°
Mean motion
3.8175 °/min
Orbital period
94.3 mins
BSTAR
0.00026432
Loading maneuver chart data...
Computing Atmospheric mass density...
Loading historical data...
Loading historical data...
Loading historical data...
Loading historical data...
Loading historical data...
Loading historical data...
Loading historical data...

Documentation

Showing up to 5 results
|